SB KEPS @ AMSAT $ORB13248.O Orbital Elements 13248.OSCAR
HR AMSAT ORBITAL ELEMENTS FOR OSCAR SATELLITES FROM WA5QGD FORT WORTH,TX September 5, 2013 BID: ORB13248.O TO ALL RADIO AMATEURS BT
Satellite: AO-07 Catalog number: 07530 Epoch time: 13247.52554771 Element set: 769 Inclination: 101.4396 deg RA of node: 234.1719 deg Eccentricity: 0.0012285 Arg of perigee: 131.5062 deg Mean anomaly: 339.8157 deg Mean motion: 12.53598205 rev/day Decay rate: -4.1e-07 rev/day^2 Epoch rev: 77572 Checksum: 305
Satellite: FO-29 Catalog number: 24278 Epoch time: 13248.67952958 Element set: 192 Inclination: 098.5462 deg RA of node: 296.4465 deg Eccentricity: 0.0349670 Arg of perigee: 315.6674 deg Mean anomaly: 156.2303 deg Mean motion: 13.53005132 rev/day Decay rate: -2.3e-07 rev/day^2 Epoch rev: 84219 Checksum: 330
Satellite: SO-33 Catalog number: 25509 Epoch time: 13247.69013094 Element set: 576 Inclination: 031.4328 deg RA of node: 337.4679 deg Eccentricity: 0.0351030 Arg of perigee: 133.9934 deg Mean anomaly: 351.8813 deg Mean motion: 14.29115051 rev/day Decay rate: 3.95e-06 rev/day^2 Epoch rev: 77627 Checksum: 312
Satellite: RS-22 Catalog number: 27939 Epoch time: 13248.59824117 Element set: 740 Inclination: 097.7986 deg RA of node: 072.2573 deg Eccentricity: 0.0012509 Arg of perigee: 296.0868 deg Mean anomaly: 063.9039 deg Mean motion: 14.64558494 rev/day Decay rate: 3.44e-06 rev/day^2 Epoch rev: 53106 Checksum: 344
Satellite: VO-52 Catalog number: 28650 Epoch time: 13248.08581697 Element set: 517 Inclination: 097.5671 deg RA of node: 262.5916 deg Eccentricity: 0.0025820 Arg of perigee: 021.4112 deg Mean anomaly: 014.1922 deg Mean motion: 14.84100664 rev/day Decay rate: 9.09e-06 rev/day^2 Epoch rev: 45093 Checksum: 299
Satellite: HO-68 Catalog number: 36122 Epoch time: 13248.61724548 Element set: 879 Inclination: 100.2981 deg RA of node: 303.6072 deg Eccentricity: 0.0007562 Arg of perigee: 168.4638 deg Mean anomaly: 191.6647 deg Mean motion: 13.16306634 rev/day Decay rate: -4.4e-07 rev/day^2 Epoch rev: 17899 Checksum: 326
/EX SB KEPS @ AMSAT $ORB13248.D Orbital Elements 13248.MICROS
HR AMSAT ORBITAL ELEMENTS FOR THE MICROSATS FROM WA5QGD FORT WORTH,TX September 5, 2013 BID: ORB13248.D TO ALL RADIO AMATEURS BT
Satellite: UO-11 Catalog number: 14781 Epoch time: 13248.17235140 Element set: 276 Inclination: 097.8943 deg RA of node: 308.3096 deg Eccentricity: 0.0009275 Arg of perigee: 038.0120 deg Mean anomaly: 322.1745 deg Mean motion: 14.80998342 rev/day Decay rate: 3.11e-06 rev/day^2 Epoch rev: 58577 Checksum: 304
Satellite: AO-16 Catalog number: 20439 Epoch time: 13248.50423633 Element set: 833 Inclination: 098.4756 deg RA of node: 186.6834 deg Eccentricity: 0.0009619 Arg of perigee: 281.5761 deg Mean anomaly: 183.4304 deg Mean motion: 14.32201877 rev/day Decay rate: 8.3e-07 rev/day^2 Epoch rev: 23373 Checksum: 311
Satellite: LO-19 Catalog number: 20442 Epoch time: 13248.79562010 Element set: 770 Inclination: 098.4454 deg RA of node: 188.4982 deg Eccentricity: 0.0010627 Arg of perigee: 269.5055 deg Mean anomaly: 119.8084 deg Mean motion: 14.32411211 rev/day Decay rate: 8.6e-07 rev/day^2 Epoch rev: 23397 Checksum: 306
Satellite: AO-27 Catalog number: 22825 Epoch time: 13248.07725602 Element set: 472 Inclination: 098.6243 deg RA of node: 191.2788 deg Eccentricity: 0.0009283 Arg of perigee: 059.7288 deg Mean anomaly: 068.7253 deg Mean motion: 14.29586659 rev/day Decay rate: 6.8e-07 rev/day^2 Epoch rev: 4004 Checksum: 336
Satellite: IO-26 Catalog number: 22826 Epoch time: 13247.83640358 Element set: 227 Inclination: 098.6185 deg RA of node: 191.3109 deg Eccentricity: 0.0009736 Arg of perigee: 053.7081 deg Mean anomaly: 359.2319 deg Mean motion: 14.29873291 rev/day Decay rate: 8.5e-07 rev/day^2 Epoch rev: 4014 Checksum: 314
Satellite: GO-32 Catalog number: 25397 Epoch time: 13247.76735812 Element set: 154 Inclination: 098.4251 deg RA of node: 212.0994 deg Eccentricity: 0.0002362 Arg of perigee: 083.2708 deg Mean anomaly: 344.5490 deg Mean motion: 14.23356965 rev/day Decay rate: 2.9e-07 rev/day^2 Epoch rev: 78726 Checksum: 319
Satellite: NO-44 Catalog number: 26931 Epoch time: 13247.56429242 Element set: 411 Inclination: 067.0525 deg RA of node: 054.8791 deg Eccentricity: 0.0007694 Arg of perigee: 269.0562 deg Mean anomaly: 149.9062 deg Mean motion: 14.29954483 rev/day Decay rate: 5.1e-07 rev/day^2 Epoch rev: 62277 Checksum: 322
Satellite: SO-50 Catalog number: 27607 Epoch time: 13248.78997888 Element set: 162 Inclination: 064.5589 deg RA of node: 018.7356 deg Eccentricity: 0.0036378 Arg of perigee: 134.4042 deg Mean anomaly: 024.2233 deg Mean motion: 14.73060577 rev/day Decay rate: 4.82e-06 rev/day^2 Epoch rev: 57558 Checksum: 340
Satellite: CO-55 Catalog number: 27844 Epoch time: 13247.75994337 Element set: 733 Inclination: 098.7026 deg RA of node: 255.6801 deg Eccentricity: 0.0009957 Arg of perigee: 026.8456 deg Mean anomaly: 060.0157 deg Mean motion: 14.21263655 rev/day Decay rate: 1.33e-06 rev/day^2 Epoch rev: 52803 Checksum: 321
Satellite: CO-57 Catalog number: 27848 Epoch time: 13247.77609009 Element set: 677 Inclination: 098.7113 deg RA of node: 255.2507 deg Eccentricity: 0.0009979 Arg of perigee: 032.6983 deg Mean anomaly: 055.2640 deg Mean motion: 14.20983803 rev/day Decay rate: 1.20e-06 rev/day^2 Epoch rev: 52796 Checksum: 338
Satellite: AO-51 Catalog number: 28375 Epoch time: 13247.81580845 Element set: 646 Inclination: 098.2101 deg RA of node: 200.1129 deg Eccentricity: 0.0084562 Arg of perigee: 134.7437 deg Mean anomaly: 281.1288 deg Mean motion: 14.41154115 rev/day Decay rate: 1.12e-06 rev/day^2 Epoch rev: 48280 Checksum: 286
Satellite: CP3 Catalog number: 31129 Epoch time: 13248.71646727 Element set: 546 Inclination: 097.9050 deg RA of node: 236.8403 deg Eccentricity: 0.0100376 Arg of perigee: 175.9751 deg Mean anomaly: 238.9680 deg Mean motion: 14.53788286 rev/day Decay rate: 4.53e-06 rev/day^2 Epoch rev: 33869 Checksum: 338
Satellite: CO-65 Catalog number: 32785 Epoch time: 13247.80497797 Element set: 729 Inclination: 097.7428 deg RA of node: 303.0437 deg Eccentricity: 0.0015014 Arg of perigee: 051.7272 deg Mean anomaly: 011.9797 deg Mean motion: 14.84081438 rev/day Decay rate: 9.10e-06 rev/day^2 Epoch rev: 28968 Checksum: 342
Satellite: PRISM Catalog number: 33493 Epoch time: 13248.73575370 Element set: 149 Inclination: 098.2256 deg RA of node: 048.3905 deg Eccentricity: 0.0016931 Arg of perigee: 292.8761 deg Mean anomaly: 067.0663 deg Mean motion: 14.86415151 rev/day Decay rate: 1.940e-05 rev/day^2 Epoch rev: 24988 Checksum: 324
Satellite: SOHLA-1 Catalog number: 33496 Epoch time: 13248.16891135 Element set: 139 Inclination: 098.1431 deg RA of node: 004.0151 deg Eccentricity: 0.0007653 Arg of perigee: 074.6357 deg Mean anomaly: 024.0096 deg Mean motion: 14.70360619 rev/day Decay rate: 2.58e-06 rev/day^2 Epoch rev: 24762 Checksum: 285
Satellite: SO-67 Catalog number: 35870 Epoch time: 13248.74380147 Element set: 398 Inclination: 097.1878 deg RA of node: 274.6348 deg Eccentricity: 0.0003484 Arg of perigee: 060.7390 deg Mean anomaly: 029.7829 deg Mean motion: 15.27907179 rev/day Decay rate: 4.175e-05 rev/day^2 Epoch rev: 22055 Checksum: 351
Satellite: TISAT-1 Catalog number: 36799 Epoch time: 13248.72073001 Element set: 419 Inclination: 098.0322 deg RA of node: 333.8932 deg Eccentricity: 0.0014852 Arg of perigee: 161.6878 deg Mean anomaly: 198.4872 deg Mean motion: 14.83615043 rev/day Decay rate: 1.505e-05 rev/day^2 Epoch rev: 17051 Checksum: 307
Satellite: STUDSAT Catalog number: 36801 Epoch time: 13247.49833319 Element set: 676 Inclination: 098.0450 deg RA of node: 336.5782 deg Eccentricity: 0.0012343 Arg of perigee: 145.2925 deg Mean anomaly: 342.8455 deg Mean motion: 14.89299848 rev/day Decay rate: 4.329e-05 rev/day^2 Epoch rev: 17051 Checksum: 328
Satellite: ALMASAT-1 Catalog number: 38078 Epoch time: 13248.75186192 Element set: 587 Inclination: 069.4750 deg RA of node: 013.5223 deg Eccentricity: 0.0678833 Arg of perigee: 043.4328 deg Mean anomaly: 321.8227 deg Mean motion: 14.28461782 rev/day Decay rate: 1.4747e-04 rev/day^2 Epoch rev: 8073 Checksum: 327
Satellite: XATCOBEO Catalog number: 38082 Epoch time: 13248.69091264 Element set: 467 Inclination: 069.4736 deg RA of node: 338.8056 deg Eccentricity: 0.0533852 Arg of perigee: 024.1780 deg Mean anomaly: 338.3462 deg Mean motion: 14.66043634 rev/day Decay rate: 4.8596e-04 rev/day^2 Epoch rev: 8168 Checksum: 337
Satellite: SOMP Catalog number: 39135 Epoch time: 13248.61748311 Element set: 291 Inclination: 064.8799 deg RA of node: 315.9168 deg Eccentricity: 0.0004076 Arg of perigee: 215.8137 deg Mean anomaly: 293.8903 deg Mean motion: 15.00791873 rev/day Decay rate: 2.637e-05 rev/day^2 Epoch rev: 2089 Checksum: 322
Satellite: CUBEBUG-1 Catalog number: 39153 Epoch time: 13248.71167398 Element set: 378 Inclination: 098.0690 deg RA of node: 324.4451 deg Eccentricity: 0.0018201 Arg of perigee: 180.8809 deg Mean anomaly: 179.2373 deg Mean motion: 14.76587752 rev/day Decay rate: 7.97e-06 rev/day^2 Epoch rev: 1956 Checksum: 339
Satellite: ESTCUBE-1 Catalog number: 39161 Epoch time: 13248.67332303 Element set: 339 Inclination: 098.1244 deg RA of node: 326.4938 deg Eccentricity: 0.0009046 Arg of perigee: 213.8515 deg Mean anomaly: 146.2142 deg Mean motion: 14.69093240 rev/day Decay rate: 6.25e-06 rev/day^2 Epoch rev: 1781 Checksum: 286
/EX SB KEPS @ AMSAT $ORB13248.W Orbital Elements 13248.WEATHER
HR AMSAT ORBITAL ELEMENTS FOR WEATHER SATELLITES FROM WA5QGD FORT WORTH,TX September 5, 2013 BID: ORB13248.W TO ALL RADIO AMATEURS BT
Satellite: NOAA-10 Catalog number: 16969 Epoch time: 13248.15176021 Element set: 484 Inclination: 098.5413 deg RA of node: 274.2316 deg Eccentricity: 0.0012169 Arg of perigee: 017.1607 deg Mean anomaly: 026.7357 deg Mean motion: 14.27661938 rev/day Decay rate: 2.4e-07 rev/day^2 Epoch rev: 40335 Checksum: 294
